Location: Düngen
(52.0952°N, 10.0219°E)
Time: 15:47:33
(UTC+00:00)

Cosmos 2227 Rocket - Pass Details

Date: 11 March 2026
Orbit: 836 x 845 km, 71.0° (Epoch: 14 April)

Event Time Altitude Azimuth Distance (km) Brightness Sun altitude
Rises 19:18:41 0° 324° (NW) 3,414 6.3 -19.2°
Reaches altitude 10° 19:22:21 10° 348° (NNW) 2,478 5.0 -19.7°
Maximum altitude 19:25:29 15° 22° (NNE) 2,150 4.3 -20.1°
Enters shadow 19:27:55 12° 49° (NE) 2,349 4.3 -20.5°
